Jacksonville, FL

11:15 AM EST on February 09, 2016 (GMT -0500)
Jacksonville Naval Air Station

Weather History for KNIP - November, 2012

Change the Weather History Date:

Monday, November 12, 2012

  Actual Average Record
Temperature  
Mean Temperature 72 °F -  
Max Temperature 77 °F 71 °F 86 °F (2015)
Min Temperature 66 °F 55 °F 44 °F (2011)
Cooling Degree Days 6    
Growing Degree Days 22 (Base 50)    
Moisture  
Dew Point 63 °F    
Average Humidity 82    
Maximum Humidity 94    
Minimum Humidity 58    
Precipitation  
Precipitation 0.03 in - - ()
Sea Level Pressure  
Sea Level Pressure 30.24 in    
Wind  
Wind Speed 3 mph (ESE)    
Max Wind Speed 16 mph    
Max Gust Speed -    
Visibility 10 miles    
Events Rain    
Averages and records for this station are not official NWS values.
T = Trace of Precipitation, MM = Missing Value Source: NWS Daily Summary

Daily Weather History Graph

Daily Weather History Graph

Search for Another Location

Airport or City:

Trip Planner

Search our weather history database for the weather conditions in past years. The results will help you decide how hot, cold, wet, or windy it might be!

Date:

Astronomy

Nov. 12, 2012 Rise Set
Actual Time 6:50 AM EST 5:31 PM EST
Civil Twilight 6:24 AM EST 5:56 PM EST
Nautical Twilight 5:55 AM EST 6:25 PM EST
Astronomical Twilight 5:27 AM EST 6:53 PM EST
Moon 5:17 AM EST (11/12) 4:33 PM EST (11/12)
Length of Visible Light 11h 31m
Length of Day
10h 41m
Waning Crescent, 2% of the Moon is Illuminated
Nov 12
Waning Crescent
Nov 13
New
Nov 20
First Quarter
Nov 28
Full
Dec 6
Last Quarter

Hourly Weather History & Observations

Time (EST) Temp. Dew Point Humidity Pressure Visibility Wind Dir Wind Speed Gust Speed Precip Events Conditions
12:53 AM 66.9 °F 63.0 °F 87% 30.27 in 10.0 mi Calm Calm - N/A   Partly Cloudy
1:53 AM 66.0 °F 62.1 °F 87% 30.27 in 10.0 mi Calm Calm - N/A   Mostly Cloudy
2:35 AM 66.2 °F 62.6 °F 88% 30.28 in 9.0 mi ESE 4.6 mph - 0.00 in Rain Light Rain
2:53 AM 66.9 °F 63.0 °F 87% 30.26 in 10.0 mi ESE 3.5 mph - 0.00 in   Mostly Cloudy
3:13 AM 66.2 °F 62.6 °F 88% 30.27 in 7.0 mi ESE 4.6 mph - 0.02 in Rain Light Rain
3:53 AM 66.9 °F 64.0 °F 90% 30.24 in 10.0 mi East 9.2 mph - 0.02 in   Mostly Cloudy
4:53 AM 66.9 °F 64.0 °F 90% 30.24 in 10.0 mi East 3.5 mph - 0.01 in   Mostly Cloudy
5:03 AM 66.2 °F 64.4 °F 94% 30.26 in 10.0 mi Calm Calm - 0.00 in Rain Light Rain
5:17 AM 66.2 °F 62.6 °F 88% 30.25 in 10.0 mi SSE 3.5 mph - 0.00 in   Mostly Cloudy
5:53 AM 66.9 °F 64.0 °F 90% 30.24 in 10.0 mi Calm Calm - 0.00 in   Mostly Cloudy
6:53 AM 66.0 °F 64.0 °F 93% 30.25 in 10.0 mi NNE 3.5 mph - N/A   Scattered Clouds
7:53 AM 66.9 °F 64.9 °F 93% 30.26 in 9.0 mi Calm Calm - N/A   Mostly Cloudy
8:53 AM 70.0 °F 64.9 °F 84% 30.28 in 10.0 mi East 4.6 mph - N/A   Mostly Cloudy
9:53 AM 70.0 °F 66.0 °F 87% 30.28 in 10.0 mi NNW 4.6 mph - N/A   Mostly Cloudy
10:53 AM 73.9 °F 64.0 °F 71% 30.28 in 10.0 mi Calm Calm - N/A   Mostly Cloudy
11:53 AM 75.9 °F 63.0 °F 64% 30.26 in 10.0 mi SSW 4.6 mph - N/A   Mostly Cloudy
12:53 PM 77.0 °F 61.0 °F 58% 30.23 in 10.0 mi ESE 4.6 mph - N/A   Overcast
1:53 PM 75.9 °F 62.1 °F 62% 30.21 in 10.0 mi East 8.1 mph - N/A   Mostly Cloudy
2:53 PM 75.9 °F 63.0 °F 64% 30.20 in 10.0 mi ESE 16.1 mph - N/A   Mostly Cloudy
3:53 PM 73.0 °F 62.1 °F 68% 30.20 in 10.0 mi ESE 6.9 mph - N/A   Mostly Cloudy
4:53 PM 72.0 °F 63.0 °F 73% 30.19 in 10.0 mi East 4.6 mph - N/A   Mostly Cloudy
5:53 PM 71.1 °F 64.0 °F 78% 30.19 in 10.0 mi East 5.8 mph - N/A   Overcast
6:53 PM 70.0 °F 64.0 °F 81% 30.21 in 10.0 mi ESE 5.8 mph - N/A   Overcast
7:53 PM 69.1 °F 64.0 °F 84% 30.22 in 10.0 mi Calm Calm - N/A   Mostly Cloudy
8:53 PM 68.0 °F 64.0 °F 87% 30.21 in 10.0 mi ESE 5.8 mph - N/A   Scattered Clouds
9:53 PM 69.1 °F 64.0 °F 84% 30.21 in 10.0 mi SSE 3.5 mph - N/A   Mostly Cloudy
10:53 PM 68.0 °F 63.0 °F 84% 30.20 in 10.0 mi SSE 3.5 mph - N/A   Mostly Cloudy
11:53 PM 66.9 °F 64.0 °F 90% 30.19 in 10.0 mi Calm Calm - N/A   Mostly Cloudy